• In Germany
  • List of Countries
  • For 7 days
  • Water Temperature
  • Satellite Maps
  • Weather Map
  • Weather Widgets
  • user-avatar
    Login

    Hourly Weather Innsbruck

    Today, 26 April, Thursday

    Time Temperature Precipitation Wind Pressure Humidity
    00:00 +6°C° 0.4 mm 1 mps 595 mmHg 97%
    01:00 +5°C° 0.4 mm 1 mps 595 mmHg 97%
    02:00 +5°C° 0.4 mm 1 mps 595 mmHg 97%
    03:00 +5°C° 0.4 mm 1 mps 595 mmHg 97%
    04:00 +4°C° 0.4 mm 1 mps 594 mmHg 97%
    05:00 +4°C° 0.3 mm 1 mps 595 mmHg 97%
    06:00 +4°C° 0.3 mm 1 mps 595 mmHg 96%
    07:00 +4°C° 0.3 mm 1 mps 595 mmHg 96%
    08:00 +4°C° 0.6 mm 1 mps 595 mmHg 94%
    09:00 +4°C° 0.6 mm 2 mps 595 mmHg 93%
    10:00 +4°C° 0.6 mm 2 mps 595 mmHg 91%
    11:00 +4°C° 0.5 mm 2 mps 595 mmHg 90%
    12:00 +4°C° 0.5 mm 2 mps 595 mmHg 89%
    13:00 +4°C° 0.5 mm 2 mps 595 mmHg 88%
    14:00 +4°C° 0.3 mm 2 mps 595 mmHg 87%
    15:00 +4°C° 0.3 mm 2 mps 595 mmHg 86%
    16:00 +4°C° 0.3 mm 2 mps 595 mmHg 85%
    17:00 +4°C° 0.1 mm 2 mps 595 mmHg 87%
    18:00 +3°C° 0.1 mm 2 mps 595 mmHg 89%
    19:00 +2°C° 0.1 mm 2 mps 595 mmHg 90%
    20:00 +3°C° 0 mm 1 mps 595 mmHg 92%
    21:00 +2°C° 0 mm 1 mps 595 mmHg 93%
    22:00 +1°C° 0 mm 1 mps 595 mmHg 95%
    23:00 +1°C° 0 mm 1 mps 595 mmHg 95%

    Tomorrow, 27 April, Friday

    Time Temperature Precipitation Wind Pressure Humidity
    00:00 +1°C° 0 mm 1 mps 595 mmHg 95%
    01:00 0°C° 0 mm 1 mps 594 mmHg 94%
    02:00 0°C° 0 mm 1 mps 594 mmHg 93%
    03:00 -2°C° 0 mm 2 mps 593 mmHg 92%
    04:00 -2°C° 0 mm 2 mps 593 mmHg 91%
    05:00 -1°C° 0 mm 2 mps 593 mmHg 89%
    06:00 +2°C° 0 mm 2 mps 594 mmHg 86%
    07:00 +3°C° 0 mm 2 mps 594 mmHg 84%
    08:00 +5°C° 0 mm 2 mps 595 mmHg 78%
    09:00 +7°C° 0 mm 2 mps 595 mmHg 72%
    10:00 +10°C° 0 mm 3 mps 596 mmHg 65%
    11:00 +10°C° 0 mm 3 mps 596 mmHg 63%
    12:00 +11°C° 0 mm 3 mps 596 mmHg 61%
    13:00 +12°C° 0 mm 3 mps 597 mmHg 59%
    14:00 +11°C° 0.2 mm 3 mps 596 mmHg 62%
    15:00 +11°C° 0.2 mm 3 mps 596 mmHg 66%
    16:00 +10°C° 0.2 mm 3 mps 595 mmHg 69%
    17:00 +8°C° 0.3 mm 2 mps 595 mmHg 75%
    18:00 +7°C° 0.3 mm 2 mps 594 mmHg 82%
    19:00 +6°C° 0.3 mm 2 mps 593 mmHg 88%
    20:00 +5°C° 0.2 mm 2 mps 594 mmHg 90%
    21:00 +4°C° 0.2 mm 2 mps 594 mmHg 92%
    22:00 +3°C° 0.2 mm 2 mps 594 mmHg 94%
    23:00 +3°C° 0.2 mm 2 mps 594 mmHg 95%

    Day after tomorrow, 28 April, Saturday

    Time Temperature Precipitation Wind Pressure Humidity
    00:00 +4°C° 0.2 mm 1 mps 594 mmHg 95%
    01:00 +3°C° 0.2 mm 1 mps 594 mmHg 96%
    02:00 +3°C° 0.1 mm 1 mps 593 mmHg 95%
    03:00 +3°C° 0.1 mm 1 mps 593 mmHg 95%
    04:00 +3°C° 0.1 mm 1 mps 593 mmHg 94%
    05:00 +3°C° 0.1 mm 1 mps 594 mmHg 92%
    06:00 +4°C° 0.1 mm 1 mps 594 mmHg 89%
    07:00 +5°C° 0.1 mm 1 mps 595 mmHg 86%
    08:00 +6°C° 0.1 mm 1 mps 595 mmHg 82%
    09:00 +7°C° 0.1 mm 1 mps 596 mmHg 78%
    10:00 +7°C° 0.1 mm 2 mps 596 mmHg 74%
    11:00 +8°C° 0.1 mm 2 mps 596 mmHg 73%
    12:00 +8°C° 0.1 mm 2 mps 596 mmHg 71%
    13:00 +9°C° 0.1 mm 2 mps 596 mmHg 70%
    14:00 +9°C° 0.3 mm 2 mps 596 mmHg 72%
    15:00 +9°C° 0.3 mm 2 mps 596 mmHg 73%
    16:00 +8°C° 0.3 mm 2 mps 595 mmHg 75%
    17:00 +8°C° 0.3 mm 2 mps 595 mmHg 80%
    18:00 +8°C° 0.3 mm 1 mps 594 mmHg 86%
    19:00 +7°C° 0.3 mm 1 mps 594 mmHg 92%
    20:00 +5°C° 0.1 mm 2 mps 594 mmHg 93%
    21:00 +4°C° 0.1 mm 2 mps 594 mmHg 95%
    22:00 +4°C° 0.1 mm 2 mps 594 mmHg 96%
    23:00 +3°C° 0 mm 2 mps 594 mmHg 96%

    29 April, Sunday

    Time Temperature Precipitation Wind Pressure Humidity
    00:00 +3°C° 0 mm 2 mps 593 mmHg 95%
    01:00 +3°C° 0 mm 2 mps 593 mmHg 95%
    02:00 +3°C° 0 mm 2 mps 593 mmHg 94%
    03:00 +2°C° 0 mm 2 mps 592 mmHg 94%
    04:00 +2°C° 0 mm 2 mps 592 mmHg 93%
    05:00 +3°C° 0 mm 2 mps 592 mmHg 90%
    06:00 +3°C° 0 mm 3 mps 593 mmHg 87%
    07:00 +3°C° 0 mm 3 mps 593 mmHg 84%
    08:00 +7°C° 0 mm 3 mps 594 mmHg 74%
    09:00 +9°C° 0 mm 3 mps 595 mmHg 65%
    10:00 +11°C° 0 mm 3 mps 596 mmHg 55%
    11:00 +12°C° 0 mm 3 mps 596 mmHg 52%
    12:00 +14°C° 0 mm 2 mps 596 mmHg 49%
    13:00 +15°C° 0 mm 2 mps 596 mmHg 46%
    14:00 +14°C° 0 mm 3 mps 595 mmHg 47%
    15:00 +13°C° 0 mm 3 mps 595 mmHg 48%
    16:00 +13°C° 0 mm 3 mps 594 mmHg 50%
    17:00 +11°C° 0 mm 3 mps 593 mmHg 59%
    18:00 +10°C° 0 mm 3 mps 592 mmHg 67%
    19:00 +8°C° 0 mm 2 mps 592 mmHg 76%
    20:00 +7°C° 0 mm 3 mps 591 mmHg 79%
    21:00 +5°C° 0 mm 3 mps 591 mmHg 82%
    22:00 +4°C° 0 mm 3 mps 591 mmHg 85%
    23:00 +4°C° 0 mm 3 mps 590 mmHg 85%

    30 April, Monday

    Time Temperature Precipitation Wind Pressure Humidity
    00:00 +4°C° 0 mm 3 mps 590 mmHg 86%
    01:00 +3°C° 0 mm 3 mps 589 mmHg 86%
    02:00 +3°C° 0 mm 3 mps 589 mmHg 86%
    03:00 +3°C° 0 mm 3 mps 589 mmHg 86%
    04:00 +3°C° 0 mm 3 mps 588 mmHg 86%
    05:00 +3°C° 0 mm 3 mps 589 mmHg 84%
    06:00 +4°C° 0 mm 3 mps 589 mmHg 82%
    07:00 +5°C° 0 mm 2 mps 589 mmHg 81%
    08:00 +4°C° 0.3 mm 3 mps 590 mmHg 79%
    09:00 +5°C° 0.3 mm 3 mps 590 mmHg 77%
    10:00 +5°C° 0.3 mm 3 mps 591 mmHg 75%
    11:00 +4°C° 1.8 mm 3 mps 591 mmHg 81%
    12:00 +3°C° 1.8 mm 2 mps 591 mmHg 87%
    13:00 +2°C° 1.8 mm 2 mps 591 mmHg 93%
    14:00 +2°C° 1.7 mm 2 mps 591 mmHg 92%
    15:00 +2°C° 1.7 mm 1 mps 591 mmHg 91%
    16:00 +2°C° 1.7 mm 1 mps 591 mmHg 90%
    17:00 +2°C° 0.3 mm 1 mps 591 mmHg 91%
    18:00 +1°C° 0.3 mm 1 mps 591 mmHg 92%
    19:00 +1°C° 0.3 mm 1 mps 591 mmHg 92%
    20:00 0°C° 0.1 mm 1 mps 591 mmHg 92%
    21:00 -1°C° 0.1 mm 1 mps 591 mmHg 93%
    22:00 -1°C° 0.1 mm 1 mps 591 mmHg 93%
    23:00 -2°C° 0 mm 1 mps 591 mmHg 92%

    1 May, Tuesday

    Time Temperature Precipitation Wind Pressure Humidity
    00:00 -2°C° 0 mm 1 mps 591 mmHg 92%
    01:00 -2°C° 0 mm 1 mps 591 mmHg 92%
    02:00 -2°C° 0 mm 1 mps 591 mmHg 91%
    03:00 -2°C° 0 mm 1 mps 591 mmHg 91%
    04:00 -3°C° 0 mm 1 mps 591 mmHg 91%
    05:00 -1°C° 0 mm 1 mps 591 mmHg 90%
    06:00 -2°C° 0 mm 2 mps 591 mmHg 88%
    07:00 -1°C° 0 mm 2 mps 592 mmHg 86%
    08:00 +2°C° 0 mm 2 mps 592 mmHg 81%
    09:00 +3°C° 0 mm 2 mps 593 mmHg 75%
    10:00 +5°C° 0 mm 2 mps 594 mmHg 69%
    11:00 +6°C° 0 mm 2 mps 594 mmHg 65%
    12:00 +7°C° 0 mm 2 mps 594 mmHg 61%
    13:00 +8°C° 0 mm 2 mps 594 mmHg 58%
    14:00 +8°C° 0.3 mm 2 mps 594 mmHg 59%
    15:00 +7°C° 0.3 mm 3 mps 593 mmHg 60%
    16:00 +7°C° 0.3 mm 3 mps 593 mmHg 61%
    17:00 +6°C° 0.5 mm 2 mps 592 mmHg 68%
    18:00 +4°C° 0.5 mm 2 mps 592 mmHg 74%
    19:00 +3°C° 0.5 mm 2 mps 591 mmHg 80%
    20:00 +1°C° 0.1 mm 2 mps 591 mmHg 83%
    21:00 -1°C° 0.1 mm 2 mps 591 mmHg 86%
    22:00 -2°C° 0.1 mm 2 mps 591 mmHg 89%
    23:00 -2°C° 0 mm 2 mps 591 mmHg 89%
    Show more